sat.trackr.live / text

‹ back to catalog

YAOGAN-30 08A

NORAD 46807 · 2020-076A

PAYLOAD ACTIVE UNKNOWN

§ Identity

Operator
Country
PRC
Launch date
2020-10-26
Launch site
XICLF
Launch vehicle
Mass (kg)
RCS (m²)

External: N2YO · Heavens-Above · Gunter

§ Orbital elements

Epoch: 2026-05-25T04:36:00.705312Z

Period
95.84 min
Inclination
34.9933°
Eccentricity
0.0000690
Mean motion
15.02577021 rev/d
Perigee alt
558.5 km
Apogee alt
559.4 km
Semi-major
6,937.1 km
B*
1.7429e-4
RAAN
231.3799°
Arg perigee
259.6771°
Mean anomaly
100.3859°
Rev number
30,465

§ Raw data

YAOGAN-30 08A1 46807U 20076A   26145.19167483  .00002337  00000+0  17429-3 0  99972 46807  34.9933 231.3799 0000690 259.6771 100.3859 15.02577021304658

JSON: /api/v1/satellites/46807 · /tle

For live sub-satellite position, see the globe view (requires WebGL).

§ Visibility from observer

Set your observer location to see the next 7 days of passes ≥ 10°. The values pass through the URL so the page stays shareable.

No JS? Fill the form by hand. The geolocation button needs JavaScript.